Location: *
(31.2983°S, 151.4094°E)
Time: 10:20:54
(UTC+00:00)

Cosmos 2228 Rocket - Pass Details

Date: 25 August 2019
Orbit: 617 x 653 km, 82.5° (Epoch: 18 September)

Event Time Altitude Azimuth Distance (km) Brightness Sun altitude
Rises 19:18:51 0° 199° (SSW) 2,954 6.3 -13.5°
Reaches altitude 10° 19:21:17 10° 209° (SSW) 2,044 5.4 -13.0°
Maximum altitude 19:25:17 31° 271° (W) 1,121 3.8 -12.1°
Drops below altitude 10° 19:29:17 10° 333° (NNW) 2,038 5.5 -11.3°
Sets 19:31:43 0° 343° (NNW) 2,944 6.4 -10.7°
